Вернуться в каталог

CZ-6A DEB

АктивенPO
NORAD 61322·DEBRIS·🇨🇳 China

Запущен Aug 6, 2024 с Taiyuan Satellite Launch Center

Loading…

Ближайшие Пролёты (ближайшие 24 часа)

TLE

СвежийSource: Space-Track

Эпоха: Sep 13, 2026, 10:13 UTC

1 61322U 24140UK  26256.42592344  .00005364  00000-0  85671-3 0  9997
2 61322  88.8775 247.4786 0106814 310.0335  49.1546 14.67952894108140

Отслеживайте CZ-6A DEB в реальном времени с AllMySat

Download on the App Store